KC5EZZ-2 Weather Reports


Display with metric or nautical units.
time (UTC)temp
F
wind
direction
speed
MPH
gust
MPH
rain 1hr
in
rain 24hr
in
rain mn
in
humidity
%
barometer
mb
20220705123300 78 172 8.0 7.0 0.00 0.00 0.00
20220705123139 78 172 8.0 7.0 0.00 0.00 0.00
20220705122749 78 183 6.0 8.0 0.00 0.00 0.00
20220705122637 78 183 6.0 8.0 0.00 0.00 0.00
20220705122137 77 165 10.0 8.0 0.00 0.00 0.00
20220705121825 77 172 7.0 9.0 0.00 0.00 0.00
20220705121638 77 172 7.0 9.0 0.00 0.00 0.00
20220705121341 76 174 9.0 5.0 0.00 0.00 0.00
20220705121134 76 174 9.0 5.0 0.00 0.00 0.00
20220705120800 76 170 5.0 7.0 0.00 0.00 0.00
20220705120635 76 170 5.0 7.0 0.00 0.00 0.00
20220705120311 75 169 5.0 6.0 0.00 0.00 0.00
20220705120135 75 169 5.0 6.0 0.00 0.00 0.00
20220705115752 75 138 8.0 6.0 0.00 0.00 0.00
20220705115632 75 138 8.0 6.0 0.00 0.00 0.00
20220705115413 75 158 6.0 9.0 0.00 0.00 0.00
20220705115132 75 158 6.0 9.0 0.00 0.00 0.00
20220705114923 75 170 8.0 6.0 0.00 0.00 0.00
20220705114833 75 170 8.0 6.0 0.00 0.00 0.00
20220705114633 75 170 8.0 6.0 0.00 0.00 0.00
20220705114354 75 180 8.0 10.0 0.00 0.00 0.00
20220705114207 75 180 8.0 10.0 0.00 0.00 0.00
20220705114130 75 180 8.0 10.0 0.00 0.00 0.00
20220705114014 75 172 7.0 11.0 0.00 0.00 0.00
20220705113631 75 172 7.0 11.0 0.00 0.00 0.00
20220705113436 75 143 7.0 8.0 0.00 0.00 0.00
20220705113131 75 143 7.0 8.0 0.00 0.00 0.00
20220705112821 75 150 8.0 8.0 0.00 0.00 0.00
20220705112629 75 150 8.0 8.0 0.00 0.00 0.00
20220705112310 75 176 7.0 8.0 0.00 0.00 0.00
20220705112129 75 176 7.0 8.0 0.00 0.00 0.00
20220705111712 76 162 10.0 11.0 0.00 0.00 0.00
20220705111630 75 156 6.0 11.0 0.00 0.00 0.00
20220705111552 76 162 10.0 11.0 0.00 0.00 0.00
20220705111451 76 162 10.0 11.0 0.00 0.00 0.00
20220705111419 76 162 10.0 11.0 0.00 0.00 0.00
20220705111127 76 162 10.0 11.0 0.00 0.00 0.00
20220705110628 77 172 8.0 9.0 0.00 0.00 0.00
20220705110527 77 177 7.0 9.0 0.00 0.00 0.00
20220705110431 77 177 7.0 9.0 0.00 0.00 0.00
20220705110208 77 177 7.0 9.0 0.00 0.00 0.00
20220705110128 77 177 7.0 9.0 0.00 0.00 0.00
20220705105744 77 160 8.0 8.0 0.00 0.00 0.00
20220705105641 77 160 8.0 8.0 0.00 0.00 0.00
20220705105626 77 166 10.0 13.0 0.00 0.00 0.00
20220705105126 77 160 8.0 8.0 0.00 0.00 0.00
20220705104852 77 160 10.0 8.0 0.00 0.00 0.00
20220705104703 77 160 10.0 8.0 0.00 0.00 0.00
20220705104627 77 160 10.0 8.0 0.00 0.00 0.00
20220705104456 76 162 11.0 11.0 0.00 0.00 0.00
20220705104423 76 162 11.0 11.0 0.00 0.00 0.00
20220705104213 76 162 11.0 11.0 0.00 0.00 0.00
20220705104124 76 162 11.0 11.0 0.00 0.00 0.00
20220705103934 76 160 10.0 9.0 0.00 0.00 0.00
20220705103625 76 160 10.0 9.0 0.00 0.00 0.00
20220705103502 76 176 9.0 10.0 0.00 0.00 0.00
20220705103125 76 176 9.0 10.0 0.00 0.00 0.00
20220705103008 77 165 10.0 12.0 0.00 0.00 0.00
20220705102712 77 143 11.0 11.0 0.00 0.00 0.00
20220705102623 76 159 11.0 13.0 0.00 0.00 0.00
20220705102123 77 143 11.0 11.0 0.00 0.00 0.00
20220705101938 77 165 10.0 12.0 0.00 0.00 0.00
20220705101627 77 165 10.0 12.0 0.00 0.00 0.00
20220705101624 77 165 10.0 12.0 0.00 0.00 0.00
20220705101348 77 180 8.0 10.0 0.00 0.00 0.00
20220705101122 77 180 8.0 10.0 0.00 0.00 0.00
20220705100945 77 158 9.0 9.0 0.00 0.00 0.00
20220705100737 77 148 11.0 9.0 0.00 0.00 0.00
20220705100622 77 158 9.0 9.0 0.00 0.00 0.00
20220705100123 77 148 11.0 9.0 0.00 0.00 0.00
20220705095841 78 184 11.0 9.0 0.00 0.00 0.00
20220705095620 78 184 11.0 9.0 0.00 0.00 0.00
20220705095441 78 172 7.0 9.0 0.00 0.00 0.00
20220705095121 78 172 7.0 9.0 0.00 0.00 0.00
20220705094952 78 176 9.0 9.0 0.00 0.00 0.00
20220705094621 78 176 9.0 9.0 0.00 0.00 0.00
20220705094302 78 162 8.0 11.0 0.00 0.00 0.00
20220705094119 78 146 8.0 9.0 0.00 0.00 0.00
20220705093726 78 149 11.0 13.0 0.00 0.00 0.00
20220705093619 78 162 8.0 11.0 0.00 0.00 0.00
20220705093120 78 149 11.0 13.0 0.00 0.00 0.00
20220705092621 76 139 9.0 11.0 0.00 0.00 0.00
20220705092617 76 149 8.0 10.0 0.00 0.00 0.00
20220705092550 76 139 9.0 11.0 0.00 0.00 0.00
20220705092118 76 139 9.0 11.0 0.00 0.00 0.00
20220705091618 77 160 9.0 10.0 0.00 0.00 0.00
20220705091116 77 150 12.0 16.0 0.00 0.00 0.00
20220705090616 77 160 9.0 8.0 0.00 0.00 0.00
20220705090603 77 163 9.0 7.0 0.00 0.00 0.00
20220705090515 77 163 9.0 7.0 0.00 0.00 0.00
20220705090117 77 163 9.0 7.0 0.00 0.00 0.00
20220705085614 77 158 12.0 12.0 0.00 0.00 0.00
20220705085506 77 148 11.0 14.0 0.00 0.00 0.00
20220705085433 77 148 11.0 14.0 0.00 0.00 0.00
20220705085115 77 148 11.0 14.0 0.00 0.00 0.00
20220705084824 77 141 10.0 10.0 0.00 0.00 0.00
20220705084710 78 131 9.0 9.0 0.00 0.00 0.00
20220705084615 77 141 10.0 10.0 0.00 0.00 0.00
20220705084113 78 131 9.0 9.0 0.00 0.00 0.00
20220705084004 77 128 10.0 10.0 0.00 0.00 0.00
20220705083634 78 138 9.0 8.0 0.00 0.00 0.00
20220705083612 77 128 10.0 10.0 0.00 0.00 0.00
20220705083113 78 138 9.0 8.0 0.00 0.00 0.00
20220705083106 77 174 12.0 14.0 0.00 0.00 0.00
20220705082610 77 174 12.0 14.0 0.00 0.00 0.00
20220705082556 77 145 10.0 14.0 0.00 0.00 0.00
20220705082110 77 145 10.0 14.0 0.00 0.00 0.00
20220705081650 78 142 11.0 11.0 0.00 0.00 0.00
20220705081610 78 172 11.0 14.0 0.00 0.00 0.00
20220705081108 78 142 11.0 11.0 0.00 0.00 0.00
20220705080654 78 142 10.0 11.0 0.00 0.00 0.00
20220705080608 78 153 10.0 11.0 0.00 0.00 0.00
20220705080109 78 142 10.0 11.0 0.00 0.00 0.00
20220705075605 78 179 10.0 16.0 0.00 0.00 0.00
20220705075416 78 148 13.0 12.0 0.00 0.00 0.00
20220705075106 78 148 13.0 12.0 0.00 0.00 0.00
20220705074837 79 159 10.0 8.0 0.00 0.00 0.00
20220705074607 79 159 10.0 8.0 0.00 0.00 0.00
20220705074449 79 148 11.0 9.0 0.00 0.00 0.00
20220705074104 79 148 11.0 9.0 0.00 0.00 0.00
20220705073924 79 145 12.0 10.0 0.00 0.00 0.00
20220705073605 79 152 11.0 9.0 0.00 0.00 0.00
20220705073429 78 152 10.0 10.0 0.00 0.00 0.00
20220705073105 79 145 12.0 10.0 0.00 0.00 0.00
20220705072603 78 152 10.0 10.0 0.00 0.00 0.00
20220705072200 79 146 8.0 9.0 0.00 0.00 0.00
20220705072103 79 150 9.0 10.0 0.00 0.00 0.00
20220705071725 79 139 12.0 13.0 0.00 0.00 0.00
20220705071604 79 146 8.0 9.0 0.00 0.00 0.00
20220705071101 79 139 12.0 13.0 0.00 0.00 0.00
20220705071034 78 149 11.0 9.0 0.00 0.00 0.00
20220705070602 78 149 11.0 9.0 0.00 0.00 0.00
20220705070102 78 174 10.0 10.0 0.00 0.00 0.00
20220705065600 78 158 10.0 10.0 0.00 0.00 0.00
20220705065100 78 136 8.0 8.0 0.00 0.00 0.00
20220705064955 78 134 6.0 7.0 0.00 0.00 0.00
20220705064601 78 134 6.0 7.0 0.00 0.00 0.00
20220705064507 78 138 8.0 9.0 0.00 0.00 0.00
20220705064105 79 139 7.0 8.0 0.00 0.00 0.00
20220705064058 78 138 8.0 9.0 0.00 0.00 0.00
20220705063658 79 155 4.0 3.0 0.00 0.00 0.00
20220705063559 79 139 7.0 8.0 0.00 0.00 0.00
20220705063059 79 155 4.0 3.0 0.00 0.00 0.00
20220705062908 79 127 7.0 5.0 0.00 0.00 0.00
20220705062557 79 127 7.0 5.0 0.00 0.00 0.00
20220705062444 79 153 5.0 4.0 0.00 0.00 0.00
20220705062334 79 158 4.0 5.0 0.00 0.00 0.00
20220705062057 79 153 5.0 4.0 0.00 0.00 0.00
20220705061558 79 149 4.0 3.0 0.00 0.00 0.00
20220705061058 79 158 4.0 5.0 0.00 0.00 0.00
20220705061055 79 158 4.0 5.0 0.00 0.00 0.00
20220705060559 79 146 5.0 4.0 0.00 0.00 0.00
20220705060556 78 166 3.0 3.0 0.00 0.00 0.00
20220705060258 80 174 6.0 5.0 0.00 0.00 0.00
20220705060056 79 146 5.0 4.0 0.00 0.00 0.00
20220705055908 80 170 5.0 5.0 0.00 0.00 0.00
20220705055554 80 170 5.0 5.0 0.00 0.00 0.00
20220705055514 80 174 6.0 5.0 0.00 0.00 0.00
20220705055057 80 174 6.0 5.0 0.00 0.00 0.00
20220705055054 80 174 6.0 5.0 0.00 0.00 0.00
20220705054924 80 170 6.0 5.0 0.00 0.00 0.00
20220705054555 80 170 6.0 5.0 0.00 0.00 0.00
20220705054052 80 150 5.0 8.0 0.00 0.00 0.00
20220705053843 80 134 7.0 6.0 0.00 0.00 0.00
20220705053553 81 155 7.0 6.0 0.00 0.00 0.00
20220705053053 80 134 7.0 6.0 0.00 0.00 0.00
20220705053043 80 142 6.0 5.0 0.00 0.00 0.00
20220705052551 80 142 6.0 5.0 0.00 0.00 0.00
20220705052435 81 148 6.0 6.0 0.00 0.00 0.00
20220705052051 81 148 6.0 6.0 0.00 0.00 0.00
20220705051552 82 153 7.0 6.0 0.00 0.00 0.00
20220705051049 81 159 7.0 9.0 0.00 0.00 0.00
20220705050550 81 142 6.0 6.0 0.00 0.00 0.00
20220705050539 81 146 6.0 5.0 0.00 0.00 0.00
20220705050450 81 146 6.0 5.0 0.00 0.00 0.00
20220705050100 82 132 6.0 7.0 0.00 0.00 0.00
20220705050050 81 146 6.0 5.0 0.00 0.00 0.00
20220705045548 82 132 6.0 7.0 0.00 0.00 0.00
20220705045524 82 125 5.0 6.0 0.00 0.00 0.00
20220705045048 82 125 5.0 6.0 0.00 0.00 0.00
20220705044907 81 149 6.0 5.0 0.00 0.00 0.00
20220705044548 81 149 6.0 5.0 0.00 0.00 0.00
20220705044046 81 141 5.0 5.0 0.00 0.00 0.00
20220705043934 82 160 6.0 3.0 0.00 0.00 0.00
20220705043741 81 169 5.0 5.0 0.00 0.00 0.00
20220705043546 82 160 6.0 3.0 0.00 0.00 0.00
20220705043047 81 169 5.0 5.0 0.00 0.00 0.00
20220705043028 82 150 5.0 4.0 0.00 0.00 0.00
20220705042544 82 150 5.0 4.0 0.00 0.00 0.00
20220705042410 82 169 5.0 4.0 0.00 0.00 0.00
20220705042045 82 169 5.0 4.0 0.00 0.00 0.00
20220705041704 82 132 6.0 6.0 0.00 0.00 0.00
20220705041545 82 158 5.0 4.0 0.00 0.00 0.00
20220705041212 83 131 7.0 4.0 0.00 0.00 0.00
20220705041043 82 132 6.0 6.0 0.00 0.00 0.00
20220705040705 83 139 6.0 6.0 0.00 0.00 0.00
20220705040548 83 139 6.0 6.0 0.00 0.00 0.00
20220705040543 83 131 7.0 4.0 0.00 0.00 0.00
20220705040044 83 139 6.0 6.0 0.00 0.00 0.00
20220705035541 84 148 5.0 4.0 0.00 0.00 0.00
20220705035042 84 160 7.0 8.0 0.00 0.00 0.00
20220705034708 84 163 7.0 6.0 0.00 0.00 0.00
20220705034542 84 148 7.0 7.0 0.00 0.00 0.00
20220705034040 84 163 7.0 6.0 0.00 0.00 0.00
20220705034028 84 158 6.0 7.0 0.00 0.00 0.00
20220705033821 84 180 5.0 6.0 0.00 0.00 0.00
20220705033540 84 158 6.0 7.0 0.00 0.00 0.00
20220705033040 84 180 5.0 6.0 0.00 0.00 0.00
20220705032538 85 170 6.0 5.0 0.00 0.00 0.00
20220705032151 85 160 7.0 9.0 0.00 0.00 0.00
20220705032038 85 180 6.0 6.0 0.00 0.00 0.00
20220705031713 85 174 6.0 9.0 0.00 0.00 0.00
20220705031539 85 160 7.0 9.0 0.00 0.00 0.00
20220705031036 85 174 6.0 9.0 0.00 0.00 0.00
20220705030537 85 155 8.0 6.0 0.00 0.00 0.00
20220705030501 85 160 6.0 9.0 0.00 0.00 0.00
20220705030037 85 160 6.0 9.0 0.00 0.00 0.00
20220705025535 85 170 6.0 8.0 0.00 0.00 0.00
20220705025440 84 177 7.0 7.0 0.00 0.00 0.00
20220705025035 84 177 7.0 7.0 0.00 0.00 0.00
20220705024652 84 169 7.0 7.0 0.00 0.00 0.00
20220705024033 84 169 7.0 7.0 0.00 0.00 0.00
20220705023934 85 153 6.0 6.0 0.00 0.00 0.00
20220705023707 85 176 5.0 6.0 0.00 0.00 0.00
20220705023533 85 153 6.0 6.0 0.00 0.00 0.00
20220705023033 85 176 5.0 6.0 0.00 0.00 0.00
20220705022656 85 174 8.0 8.0 0.00 0.00 0.00
20220705022531 85 165 6.0 6.0 0.00 0.00 0.00
20220705022031 85 174 8.0 8.0 0.00 0.00 0.00
20220705021931 86 186 7.0 8.0 0.00 0.00 0.00
20220705021532 86 186 7.0 8.0 0.00 0.00 0.00
20220705021029 86 186 7.0 7.0 0.00 0.00 0.00
20220705020817 85 174 11.0 9.0 0.00 0.00 0.00
20220705020728 85 174 11.0 9.0 0.00 0.00 0.00
20220705020530 85 188 9.0 7.0 0.00 0.00 0.00
20220705020343 86 170 10.0 10.0 0.00 0.00 0.00
20220705020337 85 174 11.0 9.0 0.00 0.00 0.00
20220705020030 85 174 11.0 9.0 0.00 0.00 0.00
20220705015616 86 170 10.0 10.0 0.00 0.00 0.00
20220705015528 86 170 10.0 10.0 0.00 0.00 0.00
20220705015028 87 173 8.0 9.0 0.00 0.00 0.00
20220705015005 88 173 10.0 12.0 0.00 0.00 0.00
20220705014913 88 173 10.0 12.0 0.00 0.00 0.00
20220705014528 88 173 10.0 12.0 0.00 0.00 0.00
20220705014144 88 181 10.0 14.0 0.00 0.00 0.00
20220705014026 88 156 11.0 9.0 0.00 0.00 0.00
20220705013836 89 152 9.0 13.0 0.00 0.00 0.00
20220705013526 88 181 10.0 14.0 0.00 0.00 0.00
20220705013026 89 152 9.0 13.0 0.00 0.00 0.00
20220705012713 89 162 10.0 14.0 0.00 0.00 0.00
20220705012524 89 155 14.0 12.0 0.00 0.00 0.00
20220705012024 89 162 10.0 14.0 0.00 0.00 0.00
20220705012003 89 165 11.0 16.0 0.00 0.00 0.00
20220705011533 89 152 10.0 13.0 0.00 0.00 0.00
20220705011525 89 165 11.0 16.0 0.00 0.00 0.00
20220705011022 89 152 10.0 13.0 0.00 0.00 0.00
20220705010933 90 169 13.0 16.0 0.00 0.00 0.00
20220705010627 90 148 10.0 8.0 0.00 0.00 0.00
20220705010523 90 169 13.0 16.0 0.00 0.00 0.00
20220705010023 90 148 10.0 8.0 0.00 0.00 0.00
20220705004620 91 150 13.0 16.0 0.00 0.00 0.00
20220705004015 91 150 13.0 16.0 0.00 0.00 0.00
20220705003515 91 179 13.0 9.0 0.00 0.00 0.00
20220705003016 92 156 10.0 10.0 0.00 0.00 0.00
20220705002513 92 177 14.0 17.0 0.00 0.00 0.00
20220705002013 91 149 13.0 11.0 0.00 0.00 0.00
20220705001736 92 177 10.0 13.0 0.00 0.00 0.00
20220705001514 92 177 10.0 13.0 0.00 0.00 0.00
20220705001431 92 176 16.0 17.0 0.00 0.00 0.00
20220705001011 92 176 16.0 17.0 0.00 0.00 0.00
20220705000635 92 125 11.0 15.0 0.00 0.00 0.00
20220705000511 92 181 11.0 11.0 0.00 0.00 0.00
20220705000012 92 125 11.0 15.0 0.00 0.00 0.00
20220704235859 92 142 13.0 11.0 0.00 0.00 0.00
20220704235714 92 142 13.0 11.0 0.00 0.00 0.00
20220704235509 92 142 13.0 11.0 0.00 0.00 0.00
20220704235009 92 143 13.0 13.0 0.00 0.00 0.00
20220704234543 92 155 11.0 10.0 0.00 0.00 0.00
20220704234510 92 155 11.0 14.0 0.00 0.00 0.00
20220704234007 92 155 11.0 10.0 0.00 0.00 0.00
20220704233749 93 129 12.0 13.0 0.00 0.00 0.00
20220704233507 93 155 10.0 11.0 0.00 0.00 0.00
20220704233008 93 129 12.0 13.0 0.00 0.00 0.00
20220704232605 93 173 14.0 14.0 0.00 0.00 0.00
20220704232505 93 150 13.0 11.0 0.00 0.00 0.00
20220704232005 93 173 14.0 14.0 0.00 0.00 0.00
20220704231646 93 166 17.0 16.0 0.00 0.00 0.00
20220704231548 93 166 17.0 16.0 0.00 0.00 0.00
20220704231506 93 184 13.0 14.0 0.00 0.00 0.00
20220704231213 93 176 11.0 12.0 0.00 0.00 0.00
20220704231003 93 166 17.0 16.0 0.00 0.00 0.00
20220704230534 93 142 11.0 9.0 0.00 0.00 0.00
20220704230503 93 176 11.0 12.0 0.00 0.00 0.00
20220704230004 93 142 11.0 9.0 0.00 0.00 0.00
20220704225501 93 180 10.0 9.0 0.00 0.00 0.00
20220704225455 93 134 11.0 11.0 0.00 0.00 0.00
20220704225000 93 134 11.0 11.0 0.00 0.00 0.00
20220704224501 93 193 12.0 10.0 0.00 0.00 0.00
20220704224300 94 210 10.0 10.0 0.00 0.00 0.00
20220704223958 94 169 9.0 11.0 0.00 0.00 0.00
20220704223458 94 210 10.0 10.0 0.00 0.00 0.00
20220704222958 93 149 13.0 13.0 0.00 0.00 0.00
20220704222648 93 200 12.0 13.0 0.00 0.00 0.00
20220704222544 93 200 12.0 13.0 0.00 0.00 0.00
20220704222455 93 131 13.0 8.0 0.00 0.00 0.00
20220704221955 93 200 12.0 13.0 0.00 0.00 0.00
20220704221456 94 174 12.0 16.0 0.00 0.00 0.00
20220704220953 94 184 14.0 15.0 0.00 0.00 0.00
20220704220730 95 169 13.0 12.0 0.00 0.00 0.00
20220704220453 95 169 13.0 12.0 0.00 0.00 0.00
20220704215954 95 166 13.0 13.0 0.00 0.00 0.00
20220704215457 95 184 8.0 10.0 0.00 0.00 0.00
20220704215450 95 186 10.0 5.0 0.00 0.00 0.00
20220704214950 95 184 8.0 10.0 0.00 0.00 0.00
20220704214641 95 149 11.0 23.0 0.00 0.00 0.00
20220704214450 94 166 12.0 6.0 0.00 0.00 0.00
20220704213947 95 149 11.0 23.0 0.00 0.00 0.00
20220704213748 94 165 11.0 15.0 0.00 0.00 0.00
20220704213706 94 165 11.0 15.0 0.00 0.00 0.00
20220704213448 93 117 8.0 10.0 0.00 0.00 0.00
20220704213110 95 177 11.0 9.0 0.00 0.00 0.00
20220704213017 95 177 11.0 9.0 0.00 0.00 0.00
20220704212948 94 165 11.0 15.0 0.00 0.00 0.00
20220704212445 95 177 11.0 9.0 0.00 0.00 0.00
20220704212424 96 184 11.0 8.0 0.00 0.00 0.00
20220704211946 96 184 11.0 8.0 0.00 0.00 0.00
20220704211446 96 142 14.0 9.0 0.00 0.00 0.00
20220704210943 95 215 9.0 7.0 0.00 0.00 0.00
20220704210913 95 155 8.0 16.0 0.00 0.00 0.00
20220704210443 95 155 8.0 16.0 0.00 0.00 0.00
20220704210036 96 134 8.0 5.0 0.00 0.00 0.00
20220704205441 96 134 8.0 5.0 0.00 0.00 0.00
20220704204941 95 149 9.0 11.0 0.00 0.00 0.00
20220704204729 94 134 11.0 14.0 0.00 0.00 0.00
20220704204441 94 134 11.0 14.0 0.00 0.00 0.00
20220704203938 96 180 15.0 8.0 0.00 0.00 0.00
20220704203439 95 170 13.0 11.0 0.00 0.00 0.00
20220704202939 95 158 8.0 17.0 0.00 0.00 0.00
20220704202436 94 134 10.0 10.0 0.00 0.00 0.00
20220704202404 95 129 15.0 15.0 0.00 0.00 0.00
20220704202025 95 172 15.0 8.0 0.00 0.00 0.00
20220704201947 95 172 15.0 8.0 0.00 0.00 0.00
20220704201937 95 129 15.0 15.0 0.00 0.00 0.00
20220704201437 95 172 15.0 8.0 0.00 0.00 0.00
20220704201213 93 128 14.0 17.0 0.00 0.00 0.00
20220704201119 93 128 14.0 17.0 0.00 0.00 0.00
20220704200934 94 132 14.0 13.0 0.00 0.00 0.00
20220704200434 93 128 14.0 17.0 0.00 0.00 0.00
20220704200410 95 131 13.0 14.0 0.00 0.00 0.00
20220704195935 95 131 13.0 14.0 0.00 0.00 0.00
20220704195432 94 162 14.0 12.0 0.00 0.00 0.00
20220704194932 94 146 13.0 13.0 0.00 0.00 0.00
20220704194433 94 143 17.0 12.0 0.00 0.00 0.00
20220704193934 94 176 8.0 8.0 0.00 0.00 0.00
20220704193930 93 129 11.0 15.0 0.00 0.00 0.00
20220704193430 94 188 12.0 14.0 0.00 0.00 0.00
20220704192931 94 176 8.0 8.0 0.00 0.00 0.00
20220704192428 93 117 12.0 15.0 0.00 0.00 0.00
20220704191928 93 136 14.0 11.0 0.00 0.00 0.00
20220704191429 94 177 12.0 9.0 0.00 0.00 0.00
20220704190926 93 122 9.0 8.0 0.00 0.00 0.00
20220704190759 93 152 7.0 13.0 0.00 0.00 0.00
20220704190426 93 152 7.0 13.0 0.00 0.00 0.00
20220704185927 92 176 8.0 7.0 0.00 0.00 0.00
20220704185424 92 174 10.0 10.0 0.00 0.00 0.00
20220704185358 91 122 10.0 16.0 0.00 0.00 0.00
20220704185019 93 139 12.0 17.0 0.00 0.00 0.00
20220704184925 91 122 10.0 16.0 0.00 0.00 0.00
20220704184425 93 139 12.0 17.0 0.00 0.00 0.00
20220704184333 93 139 13.0 8.0 0.00 0.00 0.00
20220704183922 93 139 13.0 8.0 0.00 0.00 0.00
20220704183423 93 143 13.0 8.0 0.00 0.00 0.00
20220704183036 94 129 9.0 5.0 0.00 0.00 0.00
20220704182923 94 129 9.0 5.0 0.00 0.00 0.00
20220704182420 93 143 14.0 9.0 0.00 0.00 0.00
20220704182344 93 191 14.0 11.0 0.00 0.00 0.00
20220704181921 93 191 14.0 11.0 0.00 0.00 0.00
20220704181908 90 204 9.0 8.0 0.00 0.00 0.00
20220704181827 90 204 9.0 8.0 0.00 0.00 0.00
20220704181455 90 204 9.0 8.0 0.00 0.00 0.00
20220704181421 90 204 9.0 8.0 0.00 0.00 0.00
20220704181319 92 174 9.0 15.0 0.00 0.00 0.00
20220704181101 91 150 14.0 14.0 0.00 0.00 0.00
20220704181028 91 150 14.0 14.0 0.00 0.00 0.00
20220704180918 92 174 9.0 15.0 0.00 0.00 0.00
20220704180516 91 150 14.0 14.0 0.00 0.00 0.00
20220704180419 91 150 14.0 14.0 0.00 0.00 0.00
20220704175919 91 195 9.0 10.0 0.00 0.00 0.00
20220704175602 90 141 13.0 12.0 0.00 0.00 0.00
20220704175519 90 141 13.0 12.0 0.00 0.00 0.00
20220704175416 90 155 12.0 16.0 0.00 0.00 0.00
20220704174917 90 141 13.0 12.0 0.00 0.00 0.00
20220704174740 90 149 13.0 15.0 0.00 0.00 0.00
20220704174417 90 149 13.0 15.0 0.00 0.00 0.00
20220704174351 90 163 12.0 17.0 0.00 0.00 0.00
20220704173914 90 163 12.0 17.0 0.00 0.00 0.00
20220704173811 91 163 10.0 13.0 0.00 0.00 0.00
20220704173415 91 163 10.0 13.0 0.00 0.00 0.00
20220704173343 91 159 15.0 18.0 0.00 0.00 0.00
20220704172915 91 159 15.0 18.0 0.00 0.00 0.00
20220704172836 90 153 14.0 15.0 0.00 0.00 0.00
20220704172413 90 153 14.0 15.0 0.00 0.00 0.00
20220704172344 92 155 15.0 15.0 0.00 0.00 0.00
20220704171913 92 155 15.0 15.0 0.00 0.00 0.00
20220704171908 91 188 9.0 9.0 0.00 0.00 0.00
20220704171758 91 188 9.0 9.0 0.00 0.00 0.00
20220704171413 91 188 9.0 9.0 0.00 0.00 0.00
20220704171249 90 125 8.0 13.0 0.00 0.00 0.00
20220704170911 90 125 8.0 13.0 0.00 0.00 0.00
20220704170850 90 145 10.0 11.0 0.00 0.00 0.00
20220704170411 90 145 10.0 11.0 0.00 0.00 0.00
20220704170253 91 160 11.0 13.0 0.00 0.00 0.00
20220704165912 91 160 11.0 13.0 0.00 0.00 0.00
20220704165846 90 169 11.0 12.0 0.00 0.00 0.00
20220704165409 90 169 11.0 12.0 0.00 0.00 0.00
20220704165240 90 167 9.0 12.0 0.00 0.00 0.00
20220704164909 90 167 9.0 12.0 0.00 0.00 0.00
20220704164824 89 160 12.0 12.0 0.00 0.00 0.00
20220704164410 89 160 12.0 12.0 0.00 0.00 0.00
20220704163907 88 139 9.0 10.0 0.00 0.00 0.00
20220704163838 89 135 8.0 8.0 0.00 0.00 0.00
20220704163407 89 135 8.0 8.0 0.00 0.00 0.00
20220704163200 90 208 11.0 9.0 0.00 0.00 0.00
20220704162908 90 208 11.0 9.0 0.00 0.00 0.00
20220704162827 88 197 10.0 12.0 0.00 0.00 0.00
20220704162405 88 197 10.0 12.0 0.00 0.00 0.00
20220704162254 89 188 10.0 7.0 0.00 0.00 0.00
20220704161906 89 188 10.0 7.0 0.00 0.00 0.00
20220704161729 88 183 12.0 15.0 0.00 0.00 0.00
20220704161406 88 183 12.0 15.0 0.00 0.00 0.00
20220704160404 88 195 10.0 11.0 0.00 0.00 0.00
20220704155905 88 181 10.0 11.0 0.00 0.00 0.00
20220704155710 88 163 9.0 9.0 0.00 0.00 0.00
20220704155402 88 163 9.0 9.0 0.00 0.00 0.00
20220704155227 87 162 10.0 11.0 0.00 0.00 0.00
20220704154903 87 162 10.0 11.0 0.00 0.00 0.00
20220704154639 87 170 9.0 9.0 0.00 0.00 0.00
20220704154403 87 170 9.0 9.0 0.00 0.00 0.00
20220704154233 86 132 9.0 11.0 0.00 0.00 0.00
20220704153901 86 132 9.0 11.0 0.00 0.00 0.00
20220704153825 86 129 10.0 9.0 0.00 0.00 0.00
20220704153401 86 129 10.0 9.0 0.00 0.00 0.00
20220704153126 86 169 11.0 11.0 0.00 0.00 0.00
20220704152901 86 169 11.0 11.0 0.00 0.00 0.00
20220704152818 85 187 11.0 11.0 0.00 0.00 0.00
20220704152359 85 187 11.0 11.0 0.00 0.00 0.00
20220704152312 86 210 9.0 11.0 0.00 0.00 0.00
20220704151859 86 210 9.0 11.0 0.00 0.00 0.00
20220704151713 85 158 10.0 8.0 0.00 0.00 0.00
20220704151400 85 158 10.0 8.0 0.00 0.00 0.00
20220704151334 85 186 11.0 13.0 0.00 0.00 0.00
20220704150858 85 186 11.0 13.0 0.00 0.00 0.00
20220704150744 85 156 11.0 10.0 0.00 0.00 0.00
20220704150358 85 156 11.0 10.0 0.00 0.00 0.00
20220704150210 84 184 10.0 9.0 0.00 0.00 0.00
20220704145858 84 184 10.0 9.0 0.00 0.00 0.00
20220704145356 83 158 8.0 9.0 0.00 0.00 0.00
20220704145157 83 150 11.0 8.0 0.00 0.00 0.00
20220704144855 83 150 11.0 8.0 0.00 0.00 0.00
20220704144710 83 167 13.0 12.0 0.00 0.00 0.00
20220704144356 83 167 13.0 12.0 0.00 0.00 0.00
20220704144310 83 165 10.0 7.0 0.00 0.00 0.00
20220704143853 83 165 10.0 7.0 0.00 0.00 0.00
20220704143559 83 120 11.0 8.0 0.00 0.00 0.00
20220704143354 83 120 11.0 8.0 0.00 0.00 0.00
20220704143220 82 183 12.0 8.0 0.00 0.00 0.00
20220704142854 82 183 12.0 8.0 0.00 0.00 0.00
20220704142631 82 174 11.0 11.0 0.00 0.00 0.00
20220704142352 82 174 11.0 11.0 0.00 0.00 0.00
20220704142225 83 174 6.0 9.0 0.00 0.00 0.00
20220704141852 83 174 6.0 9.0 0.00 0.00 0.00
20220704141630 81 198 9.0 6.0 0.00 0.00 0.00
20220704141353 81 198 9.0 6.0 0.00 0.00 0.00
20220704141037 81 156 10.0 13.0 0.00 0.00 0.00
20220704140851 81 156 10.0 13.0 0.00 0.00 0.00
20220704140639 80 156 12.0 10.0 0.00 0.00 0.00
20220704140351 80 156 12.0 10.0 0.00 0.00 0.00
20220704135852 81 148 13.0 12.0 0.00 0.00 0.00
20220704135550 81 169 10.0 13.0 0.00 0.00 0.00
20220704135348 81 169 10.0 13.0 0.00 0.00 0.00
20220704134849 80 172 13.0 9.0 0.00 0.00 0.00
20220704134551 80 143 12.0 15.0 0.00 0.00 0.00
20220704134349 80 143 12.0 15.0 0.00 0.00 0.00
20220704133515 80 149 9.0 13.0 0.00 0.00 0.00
20220704133348 80 149 9.0 13.0 0.00 0.00 0.00
20220704133004 80 141 12.0 11.0 0.00 0.00 0.00
20220704132848 80 141 12.0 11.0 0.00 0.00 0.00
20220704132524 79 153 13.0 14.0 0.00 0.00 0.00
20220704132435 79 153 13.0 14.0 0.00 0.00 0.00
20220704132346 79 153 13.0 14.0 0.00 0.00 0.00
20220704132131 79 146 11.0 15.0 0.00 0.00 0.00
20220704131845 79 146 11.0 15.0 0.00 0.00 0.00
20220704131455 80 143 11.0 8.0 0.00 0.00 0.00
20220704131419 80 143 11.0 8.0 0.00 0.00 0.00
20220704131346 80 143 11.0 8.0 0.00 0.00 0.00
20220704131144 80 162 10.0 10.0 0.00 0.00 0.00
20220704131029 80 162 10.0 10.0 0.00 0.00 0.00
20220704130954 80 162 10.0 10.0 0.00 0.00 0.00
20220704130858 80 162 10.0 10.0 0.00 0.00 0.00
20220704130843 80 162 10.0 10.0 0.00 0.00 0.00
20220704130451 80 156 11.0 12.0 0.00 0.00 0.00
20220704130354 80 156 11.0 12.0 0.00 0.00 0.00
20220704130344 80 156 11.0 12.0 0.00 0.00 0.00
20220704130001 81 156 10.0 10.0 0.00 0.00 0.00
20220704125842 81 156 10.0 10.0 0.00 0.00 0.00
20220704125516 80 132 8.0 8.0 0.00 0.00 0.00
20220704125443 80 132 8.0 8.0 0.00 0.00 0.00
20220704125339 80 132 8.0 8.0 0.00 0.00 0.00
20220704124935 80 143 10.0 10.0 0.00 0.00 0.00
20220704124840 80 143 10.0 10.0 0.00 0.00 0.00
20220704124639 80 166 9.0 8.0 0.00 0.00 0.00
20220704124441 80 166 9.0 8.0 0.00 0.00 0.00
20220704124340 80 166 9.0 8.0 0.00 0.00 0.00
20220704124106 80 153 10.0 7.0 0.00 0.00 0.00
20220704124030 80 153 10.0 7.0 0.00 0.00 0.00
20220704123947 80 153 10.0 7.0 0.00 0.00 0.00
20220704123912 80 153 10.0 7.0 0.00 0.00 0.00
20220704123838 80 153 10.0 7.0 0.00 0.00 0.00
20220704123524 79 183 8.0 9.0 0.00 0.00 0.00